Location: Caltech
(34.1382°N, 118.1253°W)
Time: 09:50:00
(UTC-07:00)

SL-08 RB Rocket - Visible Passes

Search period start: 27 June 2016 00:00
Search period end: 07 July 2016 00:00
Orbit: 648 x 686 km, 98.0° (Epoch: 27 June)

Date Brightness Start Highest point End Pass type
(mag) Time Alt. Az. Time Alt. Az. Time Alt. Az.
27 Jun 5.7 21:12:52 10° E 21:14:44 13° ENE 21:16:40 10° NE visible
27 Jun 4.2 22:51:00 49° WSW 22:51:17 50° W 22:55:39 10° NNW visible
28 Jun 4.8 21:44:59 24° E 21:46:10 28° ENE 21:49:58 10° NNE visible
28 Jun 5.5 23:23:07 21° W 23:23:09 21° W 23:26:36 10° NW visible
29 Jun 3.6 22:17:05 56° ESE 22:17:45 64° ENE 22:22:12 10° N visible
30 Jun 5.8 21:11:11 10° E 21:12:57 12° ENE 21:14:42 10° NE visible
30 Jun 4.1 22:49:12 52° WSW 22:49:28 52° W 22:53:52 10° NNW visible
01 Jul 4.9 21:43:10 23° E 21:44:23 27° ENE 21:48:07 10° NNE visible
01 Jul 5.5 23:21:19 22° W 23:21:20 22° W 23:24:52 10° NW visible
02 Jul 3.7 22:15:17 54° ESE 22:15:57 61° ENE 22:20:23 10° N visible
03 Jul 5.8 21:09:37 10° E 21:11:10 12° ENE 21:12:43 10° NE visible
03 Jul 4.0 22:47:24 54° WSW 22:47:40 55° W 22:52:05 10° NNW visible
04 Jul 4.9 21:41:23 23° E 21:42:35 26° ENE 21:46:17 10° NNE visible
04 Jul 5.4 23:19:31 24° W 23:19:31 24° W 23:23:09 10° NW visible
05 Jul 3.7 22:13:30 52° ESE 22:14:09 59° ENE 22:18:35 10° N visible
06 Jul 5.8 21:08:04 10° E 21:09:23 11° ENE 21:10:42 10° NE visible
06 Jul 3.9 22:45:37 57° WSW 22:45:51 58° W 22:50:19 10° NNW visible
